TimeCDT,TemperatureF,Dew PointF,Humidity,Sea Level PressureIn,VisibilityMPH,Wind Direction,Wind SpeedMPH,Gust SpeedMPH,PrecipitationIn,Events,Conditions,WindDirDegrees,DateUTC
12:15 AM,56.8,54.1,91,30.05,10.0,Calm,Calm,-,N/A,,Clear,0,2013-07-11 05:15:00
12:35 AM,56.8,54.3,91,30.05,10.0,Calm,Calm,-,N/A,,Clear,0,2013-07-11 05:35:00
12:55 AM,56.8,53.6,89,30.06,10.0,Calm,Calm,-,N/A,,Clear,0,2013-07-11 05:55:00
1:15 AM,56.8,54.3,91,30.06,10.0,Calm,Calm,-,N/A,,Clear,0,2013-07-11 06:15:00
1:35 AM,56.8,54.0,90,30.06,10.0,Calm,Calm,-,N/A,,Clear,0,2013-07-11 06:35:00
1:55 AM,56.8,54.5,92,30.06,10.0,Calm,Calm,-,N/A,,Clear,0,2013-07-11 06:55:00
2:15 AM,57.2,54.3,90,30.07,10.0,Calm,Calm,-,N/A,,Scattered Clouds,0,2013-07-11 07:15:00
2:35 AM,56.8,54.5,92,30.07,10.0,Calm,Calm,-,N/A,,Clear,0,2013-07-11 07:35:00
2:55 AM,56.8,54.7,92,30.08,10.0,Calm,Calm,-,N/A,,Clear,0,2013-07-11 07:55:00
3:15 AM,56.8,54.7,92,30.08,10.0,Calm,Calm,-,N/A,,Clear,0,2013-07-11 08:15:00
3:35 AM,56.7,54.7,93,30.09,2.5,Calm,Calm,-,N/A,,Clear,0,2013-07-11 08:35:00
3:55 AM,55.0,53.1,93,30.09,7.0,Calm,Calm,-,N/A,,Clear,0,2013-07-11 08:55:00
4:15 AM,55.0,52.9,92,30.10,10.0,Calm,Calm,-,N/A,,Clear,0,2013-07-11 09:15:00
4:35 AM,51.8,49.6,92,30.10,10.0,Calm,Calm,-,N/A,,Clear,0,2013-07-11 09:35:00
4:55 AM,52.2,49.8,92,30.10,10.0,Calm,Calm,-,N/A,,Clear,0,2013-07-11 09:55:00
5:15 AM,51.8,49.6,92,30.11,10.0,Calm,Calm,-,N/A,,Clear,0,2013-07-11 10:15:00
5:35 AM,51.8,49.3,91,30.11,10.0,Calm,Calm,-,N/A,,Clear,0,2013-07-11 10:35:00
5:55 AM,51.8,49.6,92,30.12,10.0,Calm,Calm,-,N/A,,Clear,0,2013-07-11 10:55:00
6:15 AM,53.4,51.3,92,30.12,10.0,Calm,Calm,-,N/A,,Clear,0,2013-07-11 11:15:00
6:35 AM,54.5,52.2,92,30.13,10.0,Calm,Calm,-,N/A,,Clear,0,2013-07-11 11:35:00
6:55 AM,56.8,54.5,92,30.13,10.0,Calm,Calm,-,N/A,,Clear,0,2013-07-11 11:55:00
7:15 AM,59.4,56.3,90,30.13,10.0,Calm,Calm,-,N/A,,Clear,0,2013-07-11 12:15:00
7:35 AM,61.9,58.1,87,30.14,10.0,Calm,Calm,-,N/A,,Clear,0,2013-07-11 12:35:00
7:55 AM,63.1,56.3,78,30.14,10.0,Calm,Calm,-,N/A,,Clear,0,2013-07-11 12:55:00
8:15 AM,64.4,55.8,73,30.15,10.0,Calm,Calm,-,N/A,,Clear,0,2013-07-11 13:15:00
8:35 AM,65.5,55.4,70,30.15,10.0,Calm,Calm,-,N/A,,Clear,0,2013-07-11 13:35:00
8:55 AM,67.1,56.1,68,30.15,10.0,Calm,Calm,-,N/A,,Clear,0,2013-07-11 13:55:00
9:15 AM,69.4,57.9,67,30.15,10.0,Calm,Calm,-,N/A,,Clear,0,2013-07-11 14:15:00
9:35 AM,72.0,58.6,63,30.15,10.0,Calm,Calm,-,N/A,,Clear,0,2013-07-11 14:35:00
9:55 AM,72.0,57.4,60,30.14,10.0,Calm,Calm,-,N/A,,Clear,0,2013-07-11 14:55:00
10:15 AM,72.0,55.4,56,30.15,10.0,Calm,Calm,-,N/A,,Clear,0,2013-07-11 15:15:00
10:35 AM,72.0,52.2,50,30.14,10.0,Calm,Calm,-,N/A,,Clear,0,2013-07-11 15:35:00
10:55 AM,73.4,53.6,50,30.14,10.0,SSE,4.6,-,N/A,,Scattered Clouds,150,2013-07-11 15:55:00
11:15 AM,74.5,53.8,48,30.14,10.0,Calm,Calm,-,N/A,,Scattered Clouds,0,2013-07-11 16:15:00
11:35 AM,76.1,53.4,45,30.14,10.0,SSE,4.6,-,N/A,,Clear,150,2013-07-11 16:35:00
11:55 AM,77.0,53.6,44,30.14,10.0,West,4.6,-,N/A,,Scattered Clouds,280,2013-07-11 16:55:00
12:15 PM,77.0,53.4,44,30.14,10.0,SSW,4.6,-,N/A,,Clear,210,2013-07-11 17:15:00
12:35 PM,77.0,52.3,42,30.14,10.0,WSW,3.5,-,N/A,,Clear,250,2013-07-11 17:35:00
12:55 PM,77.0,52.2,42,30.14,10.0,Calm,Calm,-,N/A,,Clear,0,2013-07-11 17:55:00
1:15 PM,77.0,50.5,39,30.13,10.0,South,6.9,-,N/A,,Clear,180,2013-07-11 18:15:00
1:35 PM,77.0,50.0,39,30.13,10.0,SSW,6.9,-,N/A,,Clear,210,2013-07-11 18:35:00
1:55 PM,77.0,48.7,37,30.13,10.0,Calm,Calm,-,N/A,,Clear,0,2013-07-11 18:55:00
2:15 PM,77.0,47.3,35,30.12,10.0,South,6.9,-,N/A,,Clear,190,2013-07-11 19:15:00
2:35 PM,77.0,48.9,37,30.12,10.0,SE,9.2,-,N/A,,Clear,130,2013-07-11 19:35:00
2:55 PM,79.7,52.0,38,30.11,10.0,South,6.9,-,N/A,,Clear,190,2013-07-11 19:55:00
3:15 PM,79.7,50.4,36,30.11,10.0,SW,8.1,-,N/A,,Clear,220,2013-07-11 20:15:00
3:35 PM,79.7,48.7,34,30.11,10.0,SW,8.1,-,N/A,,Clear,230,2013-07-11 20:35:00
3:55 PM,79.7,48.7,34,30.10,10.0,SSE,6.9,-,N/A,,Clear,150,2013-07-11 20:55:00
4:15 PM,79.7,49.3,34,30.10,10.0,South,5.8,-,N/A,,Clear,190,2013-07-11 21:15:00
4:35 PM,79.7,48.9,34,30.09,10.0,South,6.9,-,N/A,,Clear,170,2013-07-11 21:35:00
4:55 PM,79.7,48.6,33,30.09,10.0,SSE,11.5,-,N/A,,Clear,160,2013-07-11 21:55:00
5:15 PM,79.7,48.7,34,30.09,10.0,South,6.9,-,N/A,,Clear,190,2013-07-11 22:15:00
5:35 PM,79.7,48.7,34,30.08,10.0,WSW,6.9,-,N/A,,Clear,240,2013-07-11 22:35:00
5:55 PM,79.7,48.7,34,30.08,10.0,SW,5.8,-,N/A,,Clear,230,2013-07-11 22:55:00
6:15 PM,79.7,47.5,32,30.08,10.0,SW,8.1,-,N/A,,Clear,230,2013-07-11 23:15:00
6:35 PM,79.2,48.4,34,30.08,10.0,SSW,8.1,-,N/A,,Clear,210,2013-07-11 23:35:00
6:55 PM,77.0,49.5,38,30.08,10.0,SSW,5.8,-,N/A,,Clear,210,2013-07-11 23:55:00
7:15 PM,77.0,53.4,44,30.08,10.0,SSW,4.6,-,N/A,,Clear,200,2013-07-12 00:15:00
7:35 PM,77.0,55.0,47,30.08,10.0,South,8.1,-,N/A,,Clear,190,2013-07-12 00:35:00
7:55 PM,74.5,55.4,51,30.07,10.0,SSW,4.6,-,N/A,,Clear,210,2013-07-12 00:55:00
8:15 PM,72.0,55.0,55,30.07,10.0,SSW,3.5,-,N/A,,Clear,200,2013-07-12 01:15:00
8:35 PM,72.0,56.5,58,30.07,10.0,Calm,Calm,-,N/A,,Clear,0,2013-07-12 01:35:00
8:55 PM,72.0,58.3,62,30.07,10.0,Calm,Calm,-,N/A,,Clear,0,2013-07-12 01:55:00
9:15 PM,69.4,57.6,66,30.07,10.0,South,3.5,-,N/A,,Clear,190,2013-07-12 02:15:00
9:35 PM,69.4,57.2,65,30.08,10.0,South,3.5,-,N/A,,Clear,190,2013-07-12 02:35:00
9:55 PM,67.1,55.6,66,30.08,10.0,SSW,3.5,-,N/A,,Clear,200,2013-07-12 02:55:00
10:15 PM,67.1,55.0,65,30.08,10.0,South,3.5,-,N/A,,Clear,190,2013-07-12 03:15:00
10:35 PM,67.1,55.0,65,30.08,10.0,South,3.5,-,N/A,,Clear,190,2013-07-12 03:35:00
10:55 PM,67.1,55.2,66,30.08,10.0,South,3.5,-,N/A,,Clear,180,2013-07-12 03:55:00
11:15 PM,66.4,55.2,67,30.09,10.0,South,3.5,-,N/A,,Clear,180,2013-07-12 04:15:00
11:35 PM,65.3,54.7,68,30.09,10.0,Calm,Calm,-,N/A,,Clear,0,2013-07-12 04:35:00
11:55 PM,64.4,54.9,71,30.09,10.0,SSW,3.5,-,N/A,,Clear,200,2013-07-12 04:55:00